Location: Ferintosh
(52.7647°N, 112.9692°W)
Time: 13:38:43
(UTC+00:00)

Transit 2A Rocket - Pass Details

Date: 22 May 2024
Orbit: 583 x 910 km, 66.7° (Epoch: 14 June)

Event Time Altitude Azimuth Distance (km) Brightness Sun altitude
Rises 18:43:15 0° 319° (NW) 3,355 8.0 56.7°
Reaches altitude 10° 18:45:40 10° 324° (NW) 2,463 7.4 56.8°
Maximum altitude 18:51:21 59° 44° (NE) 1,010 6.3 57.0°
Drops below altitude 10° 18:57:20 10° 124° (ESE) 2,584 8.2 57.3°
Sets 18:59:56 0° 128° (SE) 3,532 8.8 57.4°
